[Date Prev][Date Next][Thread Prev][Thread Next][Date Index][Thread Index]

[jamsat-news:1259] jas2info #184



========================   最新情報   ==============================

        Last updated :Wed.19-Apr.-2000  21:40 (JST) #184
====================================================================
   
  1)アマチュア通信衛星情報 FOシリーズの軌道要素、テレメトリ、
   QSOの状況等をまとめてみました.
   
   FO−29の4月17日(月)のテレメトリはJARLのホームページの
  運用予定のとうり11:33(JST)のパスではディジタル系運用になって
  おりました.1200bpsのパケット信号でテレメトリを11:33〜
  11:37(JST)に受信できました.
  現在まで、当局で取得したデータの1部を掲載しておきます. 

***** AS18103P 17Apr2000 *****

 8J1JCS>BEACON [04/17/00  11:33:31]:
 JAS-2    '97/04/17 02:19:25
 9C 03 03 08 00 36 00 00 00 00
 00 00 45 EF D2 6F 51 94 91 9F
 AA 52 A8 02 B5 B9 BC BB B7 B9

 8J1JCS>BEACON [04/17/00  11:33:32]:95 02 00 09 00 00 97 40 00 00
 1F 3B EE 61 5E 9B 9E 83 83 82
 00 00 00 AB 84 B3 F7 00 00 00                           

 8J1JCS>BEACON [04/17/00  11:33:34]:
 User not connect.                                                                                                       


 8J1JCS>BEACON [04/17/00  11:33:35]:
 Total    2 File(s)
  No.  Date  UTC    To    From   Size   Subject
 0002 03/10 07:55 ALL    K7XQ        69 
 0001 03/07 08:52 ALL
 8J1JCS>BEACON [04/17/00  11:33:36]:    K7XQ        29 Hello from K7XQ 
 8J1JCS>BEACON [04/17/00  11:35:46]:
 JAS-2    '97/04/17 02:21:25
 9C 03 63 08 00 36 00 00 00 00
 00 00 45 F0 0E 83 60 92 90 B0
 AA 52 A8 02 E3 B9 BC BB B7 B9         


 8J1JCS>BEACON [04/17/00  11:35:47]:95 02 00 09 00 00 97 40 00 00
 E4 37 FF 69 4D 8F 93 83 82 82
 00 00 00 AA 84 B3 F7 00 00 00                                     


 8J1JCS>BEACON [04/17/00  11:35:49]:
 User not connect.                                                                                              


 8J1JCS>BEACON [04/17/00  11:35:50]:
 Total    2 File(s)
  No.  Date  UTC    To    From   Size   Subject
 0002 03/10 07:55 ALL    K7XQ        69 
 0001 03/07 08:52 ALL
 8J1JCS>BEACON [04/17/00  11:35:51]:    K7XQ        29 Hello from K7XQ                                                                                            


 8J1JCS>BEACON [04/17/00  11:37:46]:
 JAS-2    '97/04/17 02:23:25
 9C 03 63 08 00 36 00 00 00 00
 00 00 45 F0 4A 97 60 93 91 B0
 AA 52 A8 02 CA B9 BB BA B6 B9        


 8J1JCS>BEACON [04/17/00  11:37:47]:95 02 00 09 00 00 97 40 00 00
 E4 37 0D 70 4D 66 61 83 82 82
 00 00 00 A9 84 B3 F7 00 00 00

***** AS18104P  17Apr2000 *****

 8J1JCS>BEACON [04/17/00  13:13:46]:
 JAS-2    '97/04/17 03:59:25
 9C 03 03 08 00 36 00 00 00 00
 00 00 45 FB 8A 8E 41 96 93 A1
 AA 52 A8 01 72 B8 BC BD B8 B9 

 8J1JCS>BEACON [04/17/00  13:13:47]:95 02 00 09 00 00 9D 40 00 00
 61 41 D3 47 0A 8F 92 7F 86 81
 00 00 00 AC 80 B3 F7 00 00 00                                    


 8J1JCS>BEACON [04/17/00  13:13:48]:
 User not connect.                                                                                                          


 8J1JCS>BEACON [04/17/00  13:13:49]:
 Total    2 File(s)
  No.  Date  UTC    To    From   Size   Subject
 0002 03/10 07:55 ALL    K7XQ        69 
 0001 03/07 08:52 ALL
 8J1JCS>BEACON [04/17/00  13:13:50]:    K7XQ        29 Hello from K7XQ                                                                                           


 8J1JCS>BEACON [04/17/00  13:15:46]:
 JAS-2    '97/04/17 04:01:25
 9C 03 03 08 00 36 00 00 00 00
 00 00 45 FB C6 6D 53 94 91 9F
 AA 52 A8 01 CC B8 BC BC B8 B9       


 8J1JCS>BEACON [04/17/00  13:15:47]:95 02 00 09 00 00 9D 40 00 00
 F6 41 C8 4F 1F 8E 91 80 86 81
 00 00 00 AC 81 B3 F7 00 00 00                                     


 8J1JCS>BEACON [04/17/00  13:15:48]:
 User not connect.                                                                                                          


 8J1JCS>BEACON [04/17/00  13:15:49]:
 Total    2 File(s)
  No.  Date  UTC    To    From   Size   Subject
 0002 03/10 07:55 ALL    K7XQ        69 
 0001 03/07 08:52 ALL
 8J1JCS>BEACON [04/17/00  13:17:46]:
 JAS-2    '97/04/17 04:03:25
 9C 03 03 08 00 36 00 00 00 00
 00 00 45 FC 02 6F 52 94 91 9F
 AA 52 A8 01 77 B8 BC BC B8 B9        


 8J1JCS>BEACON [04/17/00  13:17:47]:95 02 00 09 00 00 9D 40 00 00
 A5 42 C2 56 10 8F 93 81 86 82
 00 00 00 AC 83 B3 F7 00 00 00                                     


 8J1JCS>BEACON [04/17/00  13:17:48]:
 User not connect.                                                                                                           


 8J1JCS>BEACON [04/17/00  13:17:49]:
 Total    2 File(s)
  No.  Date  UTC    To    From   Size   Subject
 0002 03/10 07:55 ALL    K7XQ        69 
 0001 03/07 08:52 ALL
 8J1JCS>BEACON [04/17/00  13:17:50]:    K7XQ        29 Hello from K7XQ                                                                                           


 8J1JCS>BEACON [04/17/00  13:19:46]:
 JAS-2    '97/04/17 04:05:25
 9C 03 03 08 00 36 00 00 00 00
 00 00 45 FC 3E 8D 42 95 92 A0
 AA 51 A8 02 B6 B8 BB BB B7 B8        


 8J1JCS>BEACON [04/17/00  13:19:48]:
 User not connect.                                                                                                           


 8J1JCS>BEACON [04/17/00  13:19:50]:    K7XQ        29 Hello from K7XQ                                                                                         


 8J1JCS>BEACON [04/17/00  13:21:46]:
 JAS-2    '97/04/17 04:07:25
 9C 03 63 08 00 36 00 00 00 00
 00 00 45 FC 7A 94 60 94 92 B0
 AA 52 A8 02 E3 B9 BB BB B7 B8        


 8J1JCS>BEACON [04/17/00  13:21:47]:95 02 00 09 00 00 9D 40 00 00
 A6 43 DA 62 2F 9E A1 81 85 82
 00 00 00 AA 83 B3 F7 00 00 00                                     


 8J1JCS>BEACON [04/17/00  13:21:48]:
 User not connect.                                                                                                            


 8J1JCS>BEACON [04/17/00  13:21:49]:
 Total    2 File(s)
  No.  Date  UTC    To    From   Size   Subject
 0002 03/10 07:55 ALL    K7XQ        69 
 0001 03/07 08:52 ALL
 8J1JCS>BEACON [04/17/00  13:21:50]:    K7XQ        29 Hello from K7XQ

 ------------------------ FO-29の軌道要素 ------------------------------        
 
  ■ 軌道要素1:「jamsat−keps:984」より              
            SB KEPS @ AMSAT  $ORB00105.N
            2Line Orbital Elements 00105.AMSAT

 HR AMSAT ORBITAL ELEMENTS FOR AMATEUR SATELLITES IN NASA FORMAT
 FROM WA5QGD FORT WORTH,TX April 14, 2000
 SEND SUBSCRIBE/UNSUBSCRIBE TO majordomo@amsat.org ONLY
 BID: ORB00105.N

  DECODE 2-LINE ELSETS WITH THE FOLLOWING KEY:
  1 AAAAAU 00  0  0 BBBBB.BBBBBBBB  .CCCCCCCC  00000-0  00000-0 0  DDDZ
  2 AAAAA EEE.EEEE FFF.FFFF GGGGGGG HHH.HHHH III.IIII JJ.JJJJJJJJKKKKKZ
  KEY: A-CATALOGNUM B-EPOCHTIME C-DECAY D-ELSETNUM E-INCLINATION F-RAAN
  G-ECCENTRICITY H-ARGPERIGEE I-MNANOM J-MNMOTION K-ORBITNUM Z-CHECKSUM

  TO ALL RADIO AMATEURS BT

 FO-29
 1 24278U 96046B   00103.80942900  .00000216  00000-0  25490-3 0 03248
 2 24278 098.5888 020.2435 0351861 036.2270 326.2153 13.52713848180453

 ■ 軌道要素2:「jamsat−keps:983」より                         
         SB KEPS @ AMSAT  $ORB00105.O
         Orbital Elements  00105.OSCAR

 HR AMSAT ORBITAL ELEMENTS FOR OSCAR SATELLITES
 FROM WA5QGD FORT WORTH,TX April 14, 2000
 SEND SUBSCRIBE/UNSUBSCRIBE TO majordomo@amsat.org ONLY
 BID: ORB00105.O
 TO ALL RADIO AMATEURS BT

  Satellite: FO-29
 Catalog number: 24278
 Epoch time:      00103.80942900
 Element set:    0324
 Inclination:      098.5888 deg
 RA of node:       020.2435 deg
 Eccentricity:    0.0351861
 Arg of perigee:   036.2270 deg
 Mean anomaly:     326.2153 deg
 Mean motion:   13.52713848 rev/day
 Decay rate:       2.16e-06 rev/day^2
 Epoch rev:           18045
 Checksum:              286
-------------------  FO-29(JAS-2)のテレメトリに関する情報  ----------------------
 
 2)[jamsat-bb:5235]FO-29 status Apr 18としてJE9PEL/1局 脇田 美根夫氏が投稿されて
   おられましたので転載させて頂きました.

 衛星FO-29は 予告どおり、本日(4/18)はデジタルJDモードになっていました。
衛星からのデータの内、改行位置がおかしい部分を整形して次に紹介します。
なお 今回の受信に、Windows95対応のフリー通信ソフトの「EXTERM」を使用
してみました。衛星FO-29のデジタル通信に使用できそうです。


[with exterm.exe   http://village.infoweb.ne.jp/~ja3thl/]

> 8J1JCS>BEACON [04/18/00  12:24:38] <UI C>:
> Total    2 File(s)
> 
>  No.  Date  UTC    To    From   Size   Subject
> 0002 03/10 07:55 ALL    K7XQ        69 
> 0001 03/07 08:52 ALL    K7XQ        29 Hello from K7XQ
> 
> 8J1JCS>BEACON [04/18/00  12:26:34] <UI C>:
> JAS-2    '97/04/18 03:11:25
> 9C 03 63 08 00 36 00 00 00 00
> 00 00 46 9E AA 93 60 94 91 B0
> AA 52 A9 01 CA B8 BB BB B7 B8
> 
> 8J1JCS>BEACON [04/18/00  12:26:36] <UI C>:
> D5 02 00 09 00 00 A5 40 00 00
> D5 40 59 5F 26 A0 A4 81 85 82
> 00 00 00 AA 83 B3 F7 00 00 00
> 
> 8J1JCS>BEACON [04/18/00  12:26:37] <UI C>:
> User not connect.


[with fo29tlme.exe   http://www.ne.jp/asahi/hamradio/je9pel/]

